DW7067 Weather Reports


time (UTC)temp
F
wind
direction
speed
knots
gust
knots
rain 1hr
in
rain 24hr
in
rain mn
in
humidity
%
barometer
mb
20260504014004 44 0 0.0 0.0 0.00 0.00 0.00 74 1012.3
20260504013004 45 0 0.0 0.0 0.00 0.00 0.00 71 1012.3
20260504012004 46 0 0.0 0.0 0.00 0.00 0.00 69 1012.2
20260504011004 47 0 0.0 0.0 0.00 0.00 0.00 67 1012.1
20260504010004 48 0 0.0 1.7 0.00 0.00 0.00 64 1012.1
20260504004004 50 0 0.0 2.6 0.00 0.00 0.00 58 1012.0
20260504003004 51 214 0.9 2.6 0.00 0.00 0.00 58 1012.0
20260504002004 52 214 0.0 4.3 0.00 0.00 0.00 55 1011.9
20260503235004 53 215 0.9 4.3 0.00 0.00 0.00 49 1011.7
20260503234005 54 213 2.6 7.8 0.00 0.00 0.00 49 1011.7
20260503233004 54 223 1.7 8.7 0.00 0.00 0.00 48 1011.7
20260503232004 54 240 1.7 5.2 0.00 0.00 0.00 49 1011.8
20260503231004 54 264 2.6 6.1 0.00 0.00 0.00 47 1011.7
20260503230004 54 232 2.6 7.0 0.00 0.00 0.00 46 1011.7
20260503224004 55 232 4.3 11.3 0.00 0.00 0.00 44 1011.7
20260503222004 57 220 3.5 7.8 0.00 0.00 0.00 43 1011.6
20260503221004 57 261 3.5 12.2 0.00 0.00 0.00 44 1011.6
20260503220005 56 249 4.3 14.8 0.00 0.00 0.00 45 1011.7
20260503215004 55 220 3.5 7.8 0.00 0.00 0.00 48 1011.7
20260503214004 55 202 3.5 7.8 0.00 0.00 0.00 45 1011.8
20260503213004 55 218 3.5 8.7 0.00 0.00 0.00 45 1011.7
20260503212004 55 206 3.5 11.3 0.00 0.00 0.00 44 1011.6
20260503211004 55 239 3.5 10.4 0.00 0.00 0.00 43 1011.8
20260503210004 56 244 2.6 9.6 0.00 0.00 0.00 43 1011.7
20260503205004 56 221 3.5 7.8 0.00 0.00 0.00 44 1011.7
20260503204004 56 238 3.5 9.6 0.00 0.00 0.00 46 1011.8
20260503203004 55 231 5.2 10.4 0.00 0.00 0.00 44 1011.9
20260503201004 55 216 5.2 13.9 0.00 0.00 0.00 44 1012.0
20260503200004 54 251 5.2 13.9 0.00 0.00 0.00 44 1012.3
20260503195004 55 253 5.2 19.1 0.00 0.00 0.00 43 1012.4
20260503194004 55 249 5.2 11.3 0.00 0.00 0.00 46 1012.3
20260503193004 55 259 4.3 15.6 0.00 0.00 0.00 44 1012.5
20260503192004 55 228 3.5 7.8 0.00 0.00 0.00 47 1012.5
20260503190004 54 242 4.3 10.4 0.00 0.00 0.00 45 1012.7
20260503185004 55 223 2.6 9.6 0.00 0.00 0.00 44 1012.8
20260503184004 54 232 4.3 10.4 0.00 0.00 0.00 47 1013.0
20260503183004 54 227 5.2 12.2 0.00 0.00 0.00 43 1013.1
20260503181004 55 228 4.3 10.4 0.00 0.00 0.00 45 1013.3
20260503180004 55 201 4.3 8.7 0.00 0.00 0.00 46 1013.1
20260503175004 55 235 4.3 12.2 0.00 0.00 0.00 42 1013.5
20260503174004 55 233 5.2 11.3 0.00 0.00 0.00 45 1013.5
20260503172004 54 224 4.3 11.3 0.00 0.00 0.00 45 1013.6
20260503151004 48 269 5.2 14.8 0.00 0.00 0.00 53 1014.9
20260503131004 42 228 3.5 8.7 0.00 0.00 0.00 78 1015.3
20260503081004 29 0 0.0 0.0 0.00 0.00 0.00 90 1014.7
20260503072004 32 0 0.0 0.0 0.00 0.00 0.00 87 1014.5
20260503071004 32 0 0.0 0.0 0.00 0.00 0.00 86 1014.4
20260503055004 35 0 0.0 0.0 0.00 0.00 0.00 82 1014.7
20260503054004 36 0 0.0 0.0 0.00 0.00 0.00 81 1014.7
20260503053004 36 0 0.0 0.0 0.00 0.00 0.00 81 1014.7
20260503052003 36 0 0.0 1.7 0.00 0.00 0.00 80 1014.8
20260503051004 36 0 0.0 0.9 0.00 0.00 0.00 80 1014.9
20260503044004 36 246 0.9 3.5 0.00 0.00 0.00 79 1015.1
20260503042004 36 0 0.0 1.7 0.00 0.00 0.00 79 1015.1
20260503041004 36 246 0.9 2.6 0.00 0.00 0.00 78 1015.2
20260503040005 36 0 0.0 2.6 0.00 0.00 0.00 78 1015.2
20260503035004 36 0 0.0 0.0 0.00 0.00 0.00 78 1015.2
20260503034004 36 0 0.0 0.9 0.00 0.00 0.00 77 1015.2
20260503033004 37 0 0.0 0.0 0.00 0.00 0.00 77 1015.3
20260503032004 37 0 0.0 0.0 0.00 0.00 0.00 76 1015.3
20260503031004 37 0 0.0 0.9 0.00 0.00 0.00 76 1015.3
20260503030004 37 0 0.0 1.7 0.00 0.00 0.00 76 1015.3
20260503025004 37 0 0.0 2.6 0.00 0.00 0.00 75 1015.4
20260503024004 38 245 0.9 1.7 0.00 0.00 0.00 73 1015.4
20260503023004 38 246 0.9 2.6 0.00 0.00 0.00 73 1015.5
20260503022004 38 246 0.9 3.5 0.00 0.00 0.00 72 1015.5
20260503021004 38 246 0.9 3.5 0.00 0.00 0.00 70 1015.5
20260503020004 38 246 0.0 3.5 0.00 0.00 0.00 69 1015.5
20260503015004 38 246 0.0 2.6 0.00 0.00 0.00 70 1015.3